Weather History for K5H4 - January, 2012

Change the Weather History Date:

Tuesday, January 3, 2012

  Actual Average (KRUG) Record (KRUG)
Temperature  
Mean Temperature 34 °F -  
Max Temperature 48 °F 15 °F 41 °F (2012)
Min Temperature 19 °F -4 °F -31 °F (1982)
Degree Days  
Heating Degree Days 32    
Moisture  
Dew Point 22 °F    
Average Humidity 66    
Maximum Humidity 87    
Minimum Humidity 49    
Precipitation  
Precipitation 0.00 in - - ()
Sea Level Pressure  
Sea Level Pressure 29.81 in    
Wind  
Wind Speed 16 mph (West)    
Max Wind Speed 26 mph    
Max Gust Speed 37 mph    
Visibility 10 miles    
Events      
Averages and records for this station are not official NWS values.
T = Trace of Precipitation, MM = Missing Value Source: NWS Daily Summary

Daily Weather History Graph

Daily Weather History Graph

Search for Another Location

Airport or City:

Trip Planner

Search our weather history database for the weather conditions in past years. The results will help you decide how hot, cold, wet, or windy it might be!

Date:

Astronomy

Jan. 03, 2012 Rise Set
Actual Time 8:28 AM CST 4:59 PM CST
Civil Twilight 7:52 AM CST 5:35 PM CST
Nautical Twilight 7:13 AM CST 6:14 PM CST
Astronomical Twilight 6:36 AM CST 6:52 PM CST
Moon 12:54 PM CST (1/3) 3:13 AM CST (1/3)
Length of Visible Light 9h 42m
Length of Day
8h 31m
Waxing Gibbous, 73% of the Moon is Illuminated
Jan 3
Waxing Gibbous
Jan 9
Full
Jan 16
Last Quarter
Jan 23
New
Jan 30
First Quarter

Hourly Weather History & Observations

Time (CST) Temp. Windchill Dew Point Humidity Pressure Visibility Wind Dir Wind Speed Gust Speed Precip Events Conditions
12:15 AM 21.2 °F 7.3 °F 8.6 °F 58% 29.99 in 10.0 mi South 16.1 mph 25.3 mph N/A   Clear
12:35 AM 19.4 °F 4.5 °F 8.6 °F 63% 29.98 in 10.0 mi South 17.3 mph 23.0 mph N/A   Clear
12:55 AM 21.2 °F 7.3 °F 8.6 °F 58% 29.97 in 10.0 mi South 16.1 mph 25.3 mph N/A   Clear
1:15 AM 21.2 °F 6.8 °F 8.6 °F 58% 29.94 in 10.0 mi South 17.3 mph 23.0 mph N/A   Clear
1:35 AM 21.2 °F 6.8 °F 8.6 °F 58% 29.92 in 10.0 mi South 17.3 mph 23.0 mph N/A   Clear
1:55 AM 21.2 °F 8.3 °F 8.6 °F 58% 29.90 in 10.0 mi South 13.8 mph 20.7 mph N/A   Clear
2:15 AM 23.0 °F 9.6 °F 8.6 °F 54% 29.88 in 10.0 mi SSW 16.1 mph 24.2 mph N/A   Clear
2:35 AM 23.0 °F 9.2 °F 6.8 °F 50% 29.87 in 10.0 mi South 17.3 mph 23.0 mph N/A   Clear
2:55 AM 23.0 °F 9.2 °F 8.6 °F 54% 29.86 in 10.0 mi SSW 17.3 mph 23.0 mph N/A   Clear
3:35 AM 23.0 °F 12.4 °F 8.6 °F 54% 29.85 in 10.0 mi SSW 10.4 mph 17.3 mph N/A   Clear
3:55 AM 23.0 °F 11.7 °F 8.6 °F 54% 29.84 in 10.0 mi SSW 11.5 mph - N/A   Clear
4:15 AM 23.0 °F 10.1 °F 10.4 °F 59% 29.81 in 10.0 mi SSW 15.0 mph - N/A   Clear
4:35 AM 23.0 °F 11.7 °F 10.4 °F 59% 29.81 in 10.0 mi SSW 11.5 mph - N/A   Clear
4:55 AM 23.0 °F 13.1 °F 10.4 °F 59% 29.80 in 10.0 mi SSW 9.2 mph - N/A   Clear
5:15 AM 23.0 °F 13.1 °F 10.4 °F 59% 29.79 in 10.0 mi SSW 9.2 mph - N/A   Clear
5:35 AM 23.0 °F 13.1 °F 12.2 °F 63% 29.78 in 10.0 mi SSW 9.2 mph - N/A   Clear
6:15 AM 24.8 °F 14.0 °F 14.0 °F 64% 29.78 in 10.0 mi SW 11.5 mph - N/A   Clear
6:35 AM 24.8 °F 14.0 °F 15.8 °F 69% 29.77 in 10.0 mi SW 11.5 mph - N/A   Clear
6:55 AM 24.8 °F 14.0 °F 15.8 °F 69% 29.76 in 10.0 mi SW 11.5 mph - N/A   Clear
7:15 AM 24.8 °F 12.9 °F 15.8 °F 69% 29.75 in 10.0 mi WSW 13.8 mph - N/A   Clear
7:35 AM 26.6 °F 14.7 °F 17.6 °F 69% 29.73 in 10.0 mi WSW 15.0 mph - N/A   Clear
7:55 AM 26.6 °F 14.3 °F 17.6 °F 69% 29.73 in 10.0 mi WSW 16.1 mph - N/A   Clear
8:15 AM 26.6 °F 15.2 °F 19.4 °F 74% 29.72 in 10.0 mi WSW 13.8 mph - N/A   Clear
8:35 AM 28.4 °F 18.0 °F 19.4 °F 69% 29.71 in 10.0 mi WSW 12.7 mph - N/A   Clear
8:55 AM 30.2 °F 20.2 °F 21.2 °F 69% 29.72 in 10.0 mi WSW 12.7 mph - N/A   Clear
9:15 AM 32.0 °F 21.6 °F 23.0 °F 69% 29.72 in 10.0 mi WSW 15.0 mph - N/A   Clear
9:35 AM 32.0 °F 21.6 °F 23.0 °F 69% 29.73 in 10.0 mi WSW 15.0 mph - N/A   Clear
9:55 AM 32.0 °F 21.6 °F 23.0 °F 69% 29.73 in 10.0 mi WSW 15.0 mph - N/A   Clear
10:15 AM 35.6 °F 26.6 °F 23.0 °F 60% 29.73 in 10.0 mi West 13.8 mph - N/A   Clear
10:35 AM 39.2 °F 30.2 °F 24.8 °F 56% 29.72 in 10.0 mi West 17.3 mph - N/A   Clear
10:55 AM 41.0 °F 32.5 °F 24.8 °F 53% 29.72 in 10.0 mi West 17.3 mph 24.2 mph N/A   Clear
11:15 AM 44.6 °F 36.6 °F 26.6 °F 49% 29.71 in 10.0 mi West 19.6 mph 26.5 mph N/A   Clear
11:35 AM 44.6 °F 36.4 °F 26.6 °F 49% 29.70 in 10.0 mi WSW 20.7 mph 26.5 mph N/A   Clear
11:55 AM 44.6 °F 36.9 °F 28.4 °F 53% 29.70 in 10.0 mi West 18.4 mph 28.8 mph N/A   Clear
12:15 PM 46.4 °F 39.2 °F 28.4 °F 50% 29.69 in 10.0 mi West 18.4 mph 23.0 mph N/A   Clear
12:35 PM 46.4 °F 39.8 °F 30.2 °F 53% 29.69 in 10.0 mi West 16.1 mph 21.9 mph N/A   Clear
12:55 PM 48.2 °F - 30.2 °F 50% 29.69 in 10.0 mi WNW 20.7 mph 26.5 mph N/A   Clear
1:15 PM 48.2 °F - 30.2 °F 50% 29.68 in 10.0 mi WNW 21.9 mph 32.2 mph N/A   Clear
1:35 PM 46.4 °F 38.1 °F 32.0 °F 57% 29.68 in 10.0 mi WNW 24.2 mph 36.8 mph N/A   Clear
1:55 PM 46.4 °F 39.5 °F 32.0 °F 57% 29.69 in 10.0 mi WNW 17.3 mph 33.4 mph N/A   Clear
2:15 PM 46.4 °F 38.3 °F 32.0 °F 57% 29.71 in 10.0 mi NW 23.0 mph 33.4 mph N/A   Clear
2:35 PM 41.0 °F 30.5 °F 32.0 °F 70% 29.72 in 10.0 mi NW 26.5 mph 35.7 mph N/A   Clear
2:55 PM 41.0 °F 30.5 °F 32.0 °F 70% 29.73 in 10.0 mi WNW 26.5 mph 33.4 mph N/A   Clear
3:15 PM 41.0 °F 31.1 °F 32.0 °F 70% 29.74 in 10.0 mi NW 23.0 mph 34.5 mph N/A   Clear
3:35 PM 41.0 °F 30.7 °F 32.0 °F 70% 29.76 in 10.0 mi NW 25.3 mph 31.1 mph N/A   Clear
3:55 PM 39.2 °F 29.0 °F 32.0 °F 75% 29.78 in 10.0 mi NW 21.9 mph 33.4 mph N/A   Clear
4:15 PM 39.2 °F 29.0 °F 32.0 °F 75% 29.80 in 10.0 mi NW 21.9 mph 27.6 mph N/A   Clear
4:35 PM 37.4 °F 26.9 °F 32.0 °F 81% 29.82 in 10.0 mi NW 20.7 mph 27.6 mph N/A   Scattered Clouds
4:55 PM 37.4 °F 26.4 °F 32.0 °F 81% 29.85 in 10.0 mi WNW 23.0 mph 32.2 mph N/A   Partly Cloudy
5:15 PM 37.4 °F 26.4 °F 32.0 °F 81% 29.87 in 10.0 mi NW 23.0 mph 31.1 mph N/A   Clear
5:35 PM 35.6 °F 24.0 °F 30.2 °F 81% 29.90 in 10.0 mi NW 23.0 mph 28.8 mph N/A   Clear
5:55 PM 35.6 °F 23.4 °F 30.2 °F 81% 29.92 in 10.0 mi NW 25.3 mph 29.9 mph N/A   Clear
6:15 PM 35.6 °F 24.5 °F 28.4 °F 75% 29.94 in 10.0 mi NW 20.7 mph 28.8 mph N/A   Clear
6:35 PM 35.6 °F 24.8 °F 28.4 °F 75% 29.96 in 10.0 mi NW 19.6 mph 29.9 mph N/A   Clear
6:55 PM 33.8 °F 22.8 °F 28.4 °F 81% 29.97 in 10.0 mi NW 18.4 mph 25.3 mph N/A   Clear
7:15 PM 32.0 °F 21.6 °F 28.4 °F 87% 29.98 in 10.0 mi NW 15.0 mph 23.0 mph N/A   Clear
7:35 PM 32.0 °F 20.5 °F 28.4 °F 87% 29.99 in 10.0 mi NW 18.4 mph 25.3 mph N/A   Clear
7:55 PM 32.0 °F 20.8 °F 28.4 °F 87% 29.98 in 10.0 mi NW 17.3 mph - N/A   Clear
8:15 PM 32.0 °F 21.6 °F 28.4 °F 87% 30.00 in 10.0 mi NW 15.0 mph 20.7 mph N/A   Clear
8:35 PM 32.0 °F 21.6 °F 28.4 °F 87% 30.00 in 10.0 mi NW 15.0 mph - N/A   Clear
8:55 PM 32.0 °F 22.5 °F 28.4 °F 87% 30.01 in 10.0 mi NW 12.7 mph - N/A   Clear
9:15 PM 30.2 °F 19.8 °F 28.4 °F 93% 30.02 in 10.0 mi NW 13.8 mph - N/A   Clear
9:35 PM 30.2 °F 19.3 °F 28.4 °F 93% 30.03 in 10.0 mi NW 15.0 mph - N/A   Clear
9:55 PM 30.2 °F 19.3 °F 28.4 °F 93% 30.04 in 10.0 mi NW 15.0 mph - N/A   Clear
10:15 PM 28.4 °F 18.0 °F 26.6 °F 93% 30.04 in 10.0 mi WNW 12.7 mph - N/A   Clear
10:35 PM 28.4 °F 19.1 °F 26.6 °F 93% 30.05 in 10.0 mi WNW 10.4 mph - N/A   Clear
10:55 PM 28.4 °F 19.1 °F 26.6 °F 93% 30.05 in 10.0 mi WNW 10.4 mph - N/A   Clear
11:15 PM 30.2 °F 21.3 °F 26.6 °F 86% 30.05 in 10.0 mi WNW 10.4 mph - N/A   Clear
11:35 PM 28.4 °F 19.1 °F 26.6 °F 93% 30.05 in 10.0 mi WNW 10.4 mph - N/A   Clear
11:55 PM 28.4 °F 20.4 °F 26.6 °F 93% 30.05 in 10.0 mi West 8.1 mph - N/A   Clear